Temperature
24 24 23 24 25 25 25 24 23 24 25 24 23 23 23 23 23 23 22 22 22 21 21 21 20 20 20 19 19 19 18 18 18 18 17 17 17 17 17 17 17 17 17 17
24 24 25 26 26 25 24 24 23 24 25 24 23 23 23 23 23 23 23 22 22 21 21 21 20 20 19 19 19 18 18 18 18 17 17 17 17 17 17 17 17 16 16 16
24 25 26 25 25 25 24 24 23 23 24 24 23 22 23 23 23 23 22 22 22 21 21 20 20 20 19 19 19 18 18 18 18 17 17 17 17 17 17 17 16 16 16 16
25 25 25 25 24 24 24 24 24 23 23 23 24 22 22 23 23 23 22 22 22 21 21 20 20 19 19 19 19 19 18 18 17 17 17 17 17 17 16 16 16 16 16 16
24 25 24 24 24 25 24 25 24 24 23 23 24 23 22 23 22 22 23 22 22 21 21 20 20 19 19 19 19 18 18 18 17 17 17 17 17 17 16 16 16 16 16 16
25 26 25 25 25 25 25 24 24 24 23 22 24 23 22 23 23 23 23 22 22 21 21 20 20 19 19 19 18 18 18 18 17 17 17 17 17 17 16 16 16 16 16 16
25 25 26 25 24 25 25 23 22 22 22 22 24 24 23 24 24 24 23 23 22 21 21 20 19 19 19 18 18 18 18 17 17 17 17 17 17 16 16 16 16 16 16 16
24 24 25 25 24 24 24 23 21 21 22 23 24 23 23 25 24 24 24 23 22 21 21 20 19 19 19 18 18 18 17 17 17 17 17 17 17 16 16 16 16 16 16 15
24 24 25 25 25 25 24 24 24 23 23 23 23 24 24 24 24 24 23 23 22 21 20 20 19 19 18 18 18 18 17 17 17 17 17 16 16 16 16 16 16 16 15 15
24 23 24 25 25 25 24 24 24 23 22 22 23 23 23 23 23 23 23 22 22 21 20 20 19 19 18 18 18 17 17 17 17 17 16 16 16 16 16 15 15 15 15 15
24 23 23 24 24 24 24 24 23 23 23 22 21 22 24 23 23 22 22 22 21 21 20 19 19 18 18 18 18 17 17 17 17 17 16 16 16 16 15 15 15 15 15 15
24 23 22 23 24 25 24 24 23 21 22 23 22 22 24 24 23 23 22 21 21 20 20 19 19 18 18 18 17 17 17 17 17 16 16 16 15 15 15 15 15 15 15 15
22 22 21 22 23 23 23 24 23 23 22 22 22 22 24 24 23 22 22 21 20 20 19 19 18 18 17 17 17 17 17 17 17 16 16 16 15 15 15 15 15 15 15 15
21 22 21 21 22 23 23 23 23 22 21 22 22 22 23 23 22 22 21 21 20 20 19 19 18 18 17 17 17 17 17 17 16 16 16 16 15 15 15 15 15 15 14 14
23 22 22 22 23 24 23 23 23 22 22 22 22 23 23 22 22 21 21 21 20 19 19 18 18 17 17 17 16 16 16 16 16 16 16 16 15 15 15 15 15 14 14 14
23 22 22 22 23 23 23 23 23 23 23 22 22 22 23 23 22 21 21 20 20 19 19 18 18 17 17 16 16 16 16 16 16 16 16 15 15 15 15 15 14 14 14 14
22 22 21 21 23 23 22 23 23 23 23 23 22 22 23 22 22 21 21 20 20 19 18 18 18 17 17 16 16 16 16 16 16 16 15 15 15 15 15 14 14 14 14 14
22 22 22 21 22 20 22 24 24 23 23 23 23 23 23 22 22 21 20 20 19 19 18 18 17 17 16 16 16 15 15 15 15 15 15 15 15 15 14 14 14 14 13 13
23 21 21 21 20 21 22 23 23 22 22 23 22 22 22 21 21 20 20 19 18 18 18 17 17 17 16 16 15 15 15 15 15 15 15 15 15 14 14 14 13 13 13 13
22 22 21 20 20 20 21 22 22 22 21 22 22 22 21 21 19 19 19 18 17 17 17 17 16 16 16 15 15 15 15 15 15 15 14 14 14 14 14 13 13 13 13 13
21 21 20 20 20 20 21 22 22 20 20 21 21 21 20 20 19 19 18 17 17 17 16 16 16 15 15 15 15 14 14 14 14 14 14 14 13 13 13 13 13 13 12 12
21 20 20 20 19 19 21 21 20 20 21 20 20 20 19 19 18 18 17 17 16 16 15 15 15 15 14 14 14 14 14 14 14 13 13 13 13 13 13 13 12 12 12 12
21 21 20 20 20 20 20 20 20 20 20 20 19 19 18 18 17 17 16 16 15 15 15 15 14 14 14 14 14 13 13 13 13 13 13 12 12 12 12 12 12 12 12 12
21 21 20 20 20 20 20 19 19 19 19 19 18 18 18 17 17 16 16 15 15 15 14 14 14 14 14 13 13 13 13 13 13 12 12 12 12 12 12 12 12 12 11 11
19 20 19 19 19 19 19 19 18 18 18 18 18 17 17 17 16 16 15 15 15 14 14 14 14 14 13 13 13 13 13 12 12 12 12 12 11 11 11 11 11 11 11 11
19 18 18 18 18 18 18 18 18 18 17 17 17 17 16 16 16 15 15 15 14 14 14 14 13 13 13 13 13 12 12 12 12 12 11 11 11 11 11 11 11 11 10 10
Wind_Speed
4 4 2 2 2 3 2 1 0 0 2 2 2 3 5 5 4 3 3 4 5 5 5 5 6 6 4 4 5 6 5 4 4 3 2 2 2 1 1 2 4 3 3 3
3 2 1 2 3 3 2 2 1 2 1 1 3 4 5 5 5 3 3 3 4 5 5 5 5 5 5 4 4 5 5 4 4 3 3 2 2 2 2 2 2 2 1 2
3 0 1 2 2 2 2 2 2 2 2 3 4 4 6 7 6 5 3 3 4 5 5 6 5 4 5 5 4 5 5 5 4 4 3 2 2 2 2 2 1 2 2 3
1 1 2 2 1 3 2 0 1 3 4 4 4 2 5 7 7 6 5 4 4 5 5 5 5 5 4 4 4 4 5 5 4 4 3 3 2 2 2 2 2 1 2 3
2 1 2 2 2 3 2 2 4 6 6 5 5 3 4 7 6 7 6 6 5 6 6 6 5 5 4 4 3 3 4 5 4 4 3 2 2 2 2 2 3 2 2 3
3 3 2 2 2 3 3 5 8 7 5 5 5 4 3 5 5 6 7 7 6 6 6 6 6 5 4 4 4 3 4 4 4 4 4 3 2 2 3 2 2 2 2 2
4 5 4 2 2 3 4 3 3 3 4 3 3 2 2 6 6 6 6 7 7 6 6 6 6 6 5 5 5 4 4 4 3 4 4 3 3 3 3 2 2 1 2 2
4 4 4 3 3 4 5 4 3 3 2 2 3 2 5 8 7 6 6 7 7 6 5 6 6 6 5 6 5 5 4 4 4 3 3 4 4 3 2 2 2 2 1 1
3 1 3 1 3 4 4 4 5 6 6 4 1 4 6 7 7 6 6 6 6 6 5 5 5 6 6 6 6 5 5 5 4 3 3 3 4 3 3 2 2 2 1 2
4 2 2 2 3 5 6 6 4 3 3 3 2 3 4 7 6 5 5 4 5 5 5 5 5 5 6 6 5 5 5 5 5 4 3 3 3 3 3 2 2 2 2 2
6 3 3 3 4 4 4 4 4 4 4 3 2 1 5 7 6 5 4 4 4 4 5 5 5 5 5 5 5 5 4 5 4 4 3 4 3 3 3 2 2 2 2 2
3 3 4 5 3 2 4 4 3 3 5 4 3 2 5 7 6 5 4 4 4 5 4 5 5 5 4 5 5 5 4 4 4 3 3 4 4 3 3 3 3 2 2 2
5 4 3 3 3 3 3 4 5 5 6 4 3 2 4 5 5 5 4 4 4 5 4 5 5 4 4 3 4 4 4 4 4 4 4 4 4 3 3 3 3 2 2 2
3 5 4 5 4 3 4 5 5 5 4 4 3 2 3 3 3 4 4 4 4 4 4 4 4 4 3 3 2 3 4 4 4 4 4 4 4 3 3 2 2 2 2 1
4 6 6 8 9 7 6 6 6 7 7 6 6 4 1 3 3 3 3 4 4 4 4 4 4 3 3 3 2 2 3 3 4 4 3 3 3 3 3 3 2 1 1 1
6 7 8 9 9 8 8 8 8 9 9 7 7 5 0 2 3 3 3 4 4 3 3 4 4 4 3 3 3 2 3 3 3 4 4 3 3 3 3 3 3 2 1 1
6 7 8 8 8 9 8 7 8 7 6 7 7 3 1 1 2 3 3 4 3 3 3 3 3 3 3 3 3 2 1 2 3 3 4 4 3 3 3 3 3 3 3 2
8 8 6 7 8 8 2 1 1 3 4 4 4 2 1 1 2 2 3 3 3 3 3 2 2 3 2 2 2 2 1 1 3 3 4 4 4 3 3 2 3 3 3 3
9 7 6 6 7 6 4 1 1 4 3 2 3 1 1 1 2 2 3 4 3 3 2 1 1 2 2 1 2 2 2 1 2 2 3 4 4 4 3 3 3 3 3 3
8 8 7 7 7 6 0 3 2 2 3 2 2 2 2 1 1 1 4 4 3 3 2 2 1 1 1 1 1 1 1 1 1 1 2 3 4 4 4 4 3 2 2 3
8 8 10 10 9 4 2 2 1 2 1 4 4 3 1 1 1 3 4 4 3 3 2 2 2 1 0 0 1 2 1 1 1 1 1 2 3 4 4 4 3 3 3 3
7 6 7 8 9 4 2 1 1 2 3 3 3 3 3 3 3 4 3 3 2 2 2 1 1 1 1 1 0 0 1 0 0 0 1 2 2 3 3 3 3 3 3 3
5 4 3 3 2 2 1 2 3 4 4 3 3 3 2 1 1 2 2 2 2 1 1 0 1 1 1 0 0 1 1 0 1 1 2 3 3 3 3 4 4 3 3 3
6 6 6 6 3 2 2 3 4 4 4 4 2 2 1 1 1 1 1 1 1 2 1 1 2 2 2 1 1 2 1 1 2 2 2 2 3 3 2 2 3 3 3 4
6 6 8 9 7 5 3 3 4 4 5 4 3 2 2 2 2 2 3 3 3 2 2 2 3 3 3 2 2 2 1 2 2 3 3 2 2 2 2 2 2 3 4 5
8 8 8 8 7 7 5 4 4 5 5 5 5 4 4 3 4 4 3 3 3 3 3 3 3 3 3 3 3 2 2 2 3 2 2 2 2 2 2 2 1 1 2 4
Wind_Direction
207 220 230 235 229 268 303 1 12 77 161 147 160 183 174 179 180 179 174 173 158 151 144 143 147 142 145 147 135 130 137 142 132 126 119 114 109 92 75 85 80 66 47 65
207 215 250 272 264 246 216 222 229 276 220 203 184 209 179 170 169 166 176 170 146 135 137 134 140 149 154 142 137 142 143 137 127 130 137 140 138 127 106 80 74 82 55 76
226 262 299 251 266 267 225 237 243 265 276 239 204 203 174 169 171 163 171 154 144 143 145 144 147 148 148 147 149 148 141 136 129 128 127 118 85 92 94 99 97 69 55 69
239 247 280 265 267 280 272 272 244 245 253 242 230 218 176 165 164 162 168 156 145 146 139 137 141 145 155 154 149 142 141 132 125 131 133 138 134 132 134 130 131 128 103 90
232 212 262 278 295 297 287 277 253 248 252 263 239 226 179 164 170 169 170 160 155 144 143 141 143 144 146 139 136 137 132 125 130 136 130 139 134 137 123 115 113 112 97 92
230 229 255 275 279 288 260 263 261 244 248 256 233 216 172 170 165 167 167 158 157 149 146 145 145 141 140 129 126 122 131 132 135 139 135 143 131 123 113 103 108 111 105 95
223 208 195 215 253 242 251 281 276 230 215 234 197 175 129 131 136 145 153 155 157 150 151 147 146 146 140 136 137 138 125 126 131 138 139 140 128 120 123 122 118 110 105 102
246 222 189 208 252 267 252 239 270 298 281 258 189 148 116 119 126 131 135 143 145 141 139 138 139 139 141 143 142 143 143 142 138 138 146 141 131 125 128 130 117 121 116 123
292 241 130 187 283 283 282 268 271 282 286 289 205 127 123 129 128 127 122 127 136 138 134 132 134 141 146 147 149 155 156 153 150 154 154 143 136 131 129 134 125 124 136 130
305 286 226 200 247 249 273 295 292 284 297 273 226 183 155 147 136 125 123 135 138 140 144 140 142 143 145 146 150 152 159 160 156 164 172 151 140 140 137 133 134 138 135 118
299 276 242 219 225 250 243 269 285 293 273 294 301 55 99 121 119 125 128 120 121 134 144 143 137 138 140 143 149 157 161 154 156 165 165 144 140 139 139 144 133 123 124 132
308 297 265 250 240 276 275 272 282 286 292 278 282 81 86 118 122 118 113 111 116 122 126 128 131 135 139 148 155 160 158 150 149 155 146 143 149 144 149 156 144 154 156 160
337 292 283 248 210 206 262 271 281 283 285 285 269 134 112 111 119 118 115 115 115 122 121 118 118 126 135 150 155 148 149 144 143 143 147 144 143 149 166 162 166 161 151 153
305 274 274 280 300 297 268 273 275 279 277 291 284 180 152 136 118 115 121 127 122 123 127 125 122 127 131 138 144 149 149 144 139 139 139 141 153 157 162 147 144 143 147 155
256 270 272 273 281 283 279 272 265 263 270 276 290 294 217 134 135 137 141 137 131 133 136 135 137 138 140 145 153 145 147 147 146 145 146 158 161 148 147 143 141 147 156 164
253 273 279 276 272 270 268 262 259 261 264 266 276 285 168 124 129 145 146 139 133 141 146 145 151 151 162 168 176 176 176 167 157 156 157 147 159 152 155 163 165 170 180 182
248 264 282 281 282 275 260 252 249 255 260 265 270 276 150 142 157 173 167 160 161 149 139 148 157 155 169 172 171 174 193 166 149 155 161 159 162 164 173 180 173 176 177 169
263 271 271 275 273 262 263 94 249 266 273 281 286 257 194 155 128 132 132 141 145 134 134 151 161 150 157 163 154 161 186 193 169 169 171 166 168 169 178 185 184 190 181 180
244 254 267 269 269 264 253 199 277 259 267 298 296 322 41 81 109 120 107 93 80 94 97 103 117 129 142 157 157 163 181 208 189 176 182 170 167 171 178 190 208 214 198 196
232 240 249 258 266 267 82 67 24 310 260 0 10 51 52 96 222 115 98 91 81 80 83 80 68 73 131 160 145 166 184 201 227 209 193 176 171 171 186 205 215 220 216 208
219 230 239 252 257 262 50 46 328 252 25 38 40 38 31 352 51 97 94 91 86 85 85 85 79 51 29 35 168 189 192 216 236 228 229 190 184 192 195 205 205 207 213 202
248 244 241 246 250 247 76 115 288 345 32 37 29 24 39 52 71 94 103 114 108 89 84 92 98 75 40 15 357 264 242 239 112 179 222 233 219 213 206 190 201 207 197 198
250 259 271 265 266 55 83 16 355 352 345 0 7 19 31 28 70 125 138 143 139 143 141 183 165 160 182 183 226 272 266 214 161 203 231 224 239 233 204 187 194 200 191 196
271 279 274 273 258 280 315 343 342 336 326 329 335 331 314 290 271 172 177 178 202 199 195 209 207 206 214 202 220 252 255 214 197 228 240 219 225 230 225 204 191 191 196 199
292 293 281 276 278 272 264 296 305 309 307 309 303 292 278 270 262 228 219 212 219 224 213 219 217 217 220 208 208 239 251 259 236 233 217 214 218 213 220 215 198 196 202 194
270 271 268 271 288 291 288 290 296 297 297 292 285 280 275 263 259 253 243 230 224 226 226 225 220 220 228 220 210 215 225 246 250 245 211 200 207 210 197 192 221 233 207 193
Height
1505 1507 1508 1505 1503 1504 1504 1508 1512 1510 1506 1509 1514 1515 1514 1515 1516 1518 1519 1520 1522 1524 1526 1528 1530 1532 1533 1535 1537 1538 1540 1541 1542 1543 1544 1545 1546 1547 1547 1548 1549 1549 1550 1550
1505 1507 1503 1501 1500 1502 1505 1511 1512 1510 1505 1509 1513 1514 1512 1513 1515 1517 1518 1520 1521 1524 1526 1528 1530 1531 1533 1535 1537 1538 1539 1541 1542 1543 1544 1545 1546 1547 1548 1548 1548 1549 1550 1550
1506 1504 1501 1501 1502 1504 1506 1510 1511 1512 1508 1507 1511 1516 1513 1512 1514 1516 1518 1519 1521 1523 1525 1527 1529 1531 1533 1535 1536 1538 1539 1540 1541 1542 1544 1545 1546 1547 1547 1548 1548 1549 1549 1550
1502 1502 1502 1503 1504 1505 1511 1505 1507 1510 1514 1515 1511 1525 1515 1511 1513 1515 1517 1519 1521 1523 1524 1526 1528 1530 1532 1534 1535 1537 1538 1539 1540 1542 1543 1544 1545 1546 1547 1548 1548 1548 1549 1549
1504 1502 1503 1505 1504 1503 1506 1504 1505 1507 1511 1514 1510 1518 1518 1510 1514 1513 1515 1517 1519 1521 1524 1526 1528 1530 1531 1533 1534 1536 1537 1539 1540 1541 1542 1543 1544 1546 1547 1547 1548 1548 1548 1549
1500 1500 1501 1503 1502 1502 1503 1505 1504 1504 1510 1522 1510 1515 1520 1510 1510 1510 1512 1515 1518 1520 1523 1525 1527 1529 1530 1532 1533 1535 1536 1538 1539 1540 1541 1543 1544 1545 1546 1547 1547 1547 1548 1548
1502 1500 1500 1502 1504 1504 1504 1513 1523 1523 1525 1521 1502 1510 1513 1503 1503 1506 1510 1513 1516 1519 1522 1524 1526 1528 1529 1531 1532 1534 1536 1537 1538 1539 1540 1542 1543 1544 1545 1545 1546 1547 1547 1547
1509 1509 1500 1500 1503 1506 1504 1510 1526 1533 1527 1516 1502 1511 1507 1500 1502 1506 1508 1512 1515 1518 1521 1523 1525 1526 1528 1530 1531 1533 1534 1536 1537 1538 1540 1541 1542 1543 1544 1544 1545 1545 1546 1546
1508 1508 1499 1499 1500 1502 1505 1506 1503 1512 1512 1517 1511 1506 1504 1500 1503 1506 1509 1512 1514 1517 1520 1522 1524 1525 1527 1529 1530 1532 1533 1535 1536 1537 1539 1540 1540 1541 1542 1543 1544 1545 1545 1545
1503 1510 1502 1500 1501 1501 1502 1502 1506 1512 1524 1528 1517 1511 1510 1505 1505 1506 1509 1511 1514 1517 1519 1521 1523 1524 1526 1528 1529 1531 1532 1533 1534 1536 1537 1538 1539 1540 1541 1542 1543 1544 1544 1545
1502 1509 1507 1503 1504 1505 1503 1505 1505 1508 1510 1523 1528 1520 1498 1502 1504 1507 1509 1511 1513 1516 1518 1520 1522 1523 1525 1527 1528 1530 1531 1532 1533 1534 1536 1537 1538 1539 1540 1541 1542 1543 1543 1544
1504 1507 1511 1505 1498 1498 1500 1503 1506 1519 1515 1510 1518 1519 1498 1500 1503 1507 1509 1512 1513 1515 1517 1519 1521 1522 1524 1526 1527 1528 1530 1531 1532 1533 1534 1535 1536 1538 1539 1540 1540 1541 1542 1543
1508 1511 1517 1514 1509 1503 1503 1502 1503 1507 1509 1512 1519 1518 1500 1501 1504 1506 1509 1511 1513 1515 1517 1519 1520 1522 1523 1525 1526 1527 1528 1529 1530 1531 1532 1533 1535 1536 1537 1538 1539 1540 1541 1542
1511 1511 1516 1521 1512 1505 1506 1504 1503 1508 1515 1514 1510 1508 1504 1503 1504 1506 1509 1511 1513 1515 1517 1518 1520 1521 1522 1524 1525 1526 1527 1528 1529 1530 1531 1532 1533 1534 1536 1537 1538 1539 1539 1540
1508 1510 1508 1505 1501 1499 1502 1503 1503 1506 1507 1511 1506 1504 1502 1502 1504 1507 1508 1510 1513 1515 1516 1518 1519 1520 1521 1522 1523 1524 1525 1526 1527 1528 1529 1530 1531 1532 1534 1535 1536 1537 1537 1538
1506 1507 1506 1505 1499 1498 1501 1500 1501 1502 1501 1503 1502 1502 1498 1500 1503 1506 1508 1510 1512 1514 1516 1517 1518 1519 1520 1521 1522 1523 1524 1525 1526 1526 1527 1528 1529 1530 1531 1532 1533 1534 1535 1536
1504 1506 1510 1509 1500 1499 1505 1497 1497 1498 1497 1499 1502 1500 1498 1500 1502 1505 1507 1509 1511 1513 1514 1516 1517 1518 1519 1520 1521 1521 1522 1523 1524 1524 1525 1526 1527 1528 1529 1530 1531 1531 1532 1533
1504 1505 1506 1507 1507 1516 1501 1489 1491 1494 1494 1495 1495 1495 1497 1499 1501 1504 1506 1507 1509 1511 1513 1514 1516 1517 1518 1519 1519 1520 1521 1521 1521 1522 1523 1523 1524 1525 1526 1527 1528 1529 1530 1530
1500 1504 1508 1509 1511 1505 1495 1491 1492 1495 1497 1494 1495 1495 1497 1498 1500 1503 1504 1506 1508 1510 1511 1513 1514 1515 1516 1517 1517 1518 1518 1519 1519 1519 1520 1521 1521 1522 1523 1524 1525 1526 1527 1527
1498 1500 1506 1508 1513 1511 1499 1492 1492 1495 1499 1495 1495 1496 1498 1499 1503 1505 1504 1506 1507 1508 1510 1511 1512 1513 1514 1515 1515 1515 1516 1516 1517 1517 1517 1518 1518 1519 1519 1520 1521 1522 1523 1524
1501 1502 1505 1507 1508 1501 1495 1493 1494 1505 1503 1496 1496 1497 1498 1500 1502 1503 1504 1505 1507 1507 1508 1510 1510 1511 1512 1513 1513 1513 1513 1513 1514 1514 1514 1514 1515 1515 1516 1517 1518 1519 1519 1520
1497 1501 1501 1502 1507 1505 1495 1494 1498 1499 1496 1497 1497 1498 1499 1500 1501 1502 1503 1504 1506 1506 1507 1508 1509 1509 1510 1510 1511 1510 1510 1511 1511 1510 1511 1511 1511 1512 1512 1513 1514 1515 1515 1516
1493 1494 1495 1497 1499 1495 1494 1496 1497 1496 1497 1497 1498 1499 1500 1500 1501 1501 1502 1503 1504 1505 1506 1506 1507 1507 1508 1508 1508 1508 1508 1508 1507 1507 1507 1507 1507 1508 1508 1509 1509 1510 1511 1512
1490 1490 1492 1493 1492 1493 1494 1494 1495 1496 1497 1497 1497 1498 1498 1499 1499 1500 1501 1502 1503 1503 1503 1504 1504 1504 1504 1505 1505 1505 1505 1505 1504 1504 1504 1504 1504 1504 1504 1505 1505 1506 1506 1507
1493 1492 1491 1491 1492 1492 1493 1494 1494 1495 1495 1495 1496 1496 1496 1497 1497 1498 1498 1499 1500 1500 1501 1501 1501 1501 1501 1501 1501 1501 1501 1501 1501 1501 1501 1500 1500 1500 1500 1501 1501 1502 1502 1503
1493 1493 1494 1493 1492 1492 1491 1492 1492 1492 1493 1493 1493 1493 1494 1494 1494 1495 1495 1496 1496 1497 1497 1498 1498 1498 1498 1498 1497 1498 1498 1498 1498 1498 1497 1497 1497 1497 1497 1497 1498 1498 1499 1500